Stations météo

réclame
Mon MeteoGroup
Trappes, France (7145): Température de l'air & dewpoint: 22.02.2020 20:00:00 - 28.02.2020 20:00:00 (CET)Trappes, France (7145): Température de l'air 5cm: 22.02.2020 20:00:00 - 28.02.2020 20:00:00 (CET)Trappes, France (7145): Température de l'air -20cm & Température de l'air -100cm: 22.02.2020 20:00:00 - 28.02.2020 20:00:00 (CET)Trappes, France (7145): Vitesse du vent & gusts: 22.02.2020 20:00:00 - 28.02.2020 20:00:00 (CET)Trappes, France (7145): Direction du vent: 22.02.2020 20:00:00 - 28.02.2020 20:00:00 (CET)Trappes, France (7145): reduced air pressure: 22.02.2020 20:00:00 - 28.02.2020 20:00:00 (CET)Trappes, France (7145): visibility: 22.02.2020 20:00:00 - 28.02.2020 20:00:00 (CET)Trappes, France (7145): Ensoleillement: 22.02.2020 20:00:00 - 28.02.2020 20:00:00 (CET)Trappes, France (7145): Quantités de précipitations: 22.02.2020 20:00:00 - 28.02.2020 20:00:00 (CET)
Date & Time tt [°C] td [°C] tt 5cm [°C] tt -20cm [°C] tt -100cm [°C] ff [km/h] ff [knt] fx [km/h] fx [knt] dd ppp [hPa] vv [km] sd [min] rr [mm]
28.02.2020 20:00:00 - - - - - - - - - - - - - -
28.02.2020 19:00:00 8,9 8,1 8,0 6,7 9,0 17 9 43 23 SSW 1008,8 7 0 0,0
28.02.2020 18:00:00 8,2 7,3 6,8 6,6 9,0 21 11 38 20 SSW 1009,6 19 0 0,0
28.02.2020 17:00:00 7,0 6,1 6,0 6,6 9,0 17 9 37 20 S 1010,9 20 0 0,2
28.02.2020 16:00:00 6,3 5,1 6,0 6,5 9,0 13 7 39 21 S 1012,0 16 0 0,0
28.02.2020 15:00:00 6,3 3,8 6,1 6,5 9,0 16 9 42 23 S 1013,1 20 0 0,0
28.02.2020 14:00:00 6,1 2,9 5,1 6,4 9,0 16 9 38 20 S 1014,0 20 0 0,2
28.02.2020 13:00:00 5,5 2,1 5,7 6,4 9,0 16 9 41 22 S 1015,4 20 0 0,0
28.02.2020 12:00:00 5,7 1,0 4,9 6,4 9,0 19 11 43 23 S 1016,6 20 0 0,0
28.02.2020 11:00:00 4,5 1,0 3,5 6,4 9,0 16 9 31 17 S 1017,7 20 0 0,0
28.02.2020 10:00:00 3,5 0,7 2,4 6,4 9,0 13 7 24 13 S 1018,8 20 0 0,0
28.02.2020 09:00:00 2,0 0,2 0,5 6,5 9,0 9 5 22 12 S 1019,0 20 0 0,0
28.02.2020 08:00:00 1,2 -0,1 -0,2 6,6 9,0 6 3 11 6 S 1019,1 20 0 0,0
28.02.2020 07:00:00 1,0 -0,3 -1,0 6,7 9,1 5 3 11 6 SSW 1019,2 20 0 0,0
28.02.2020 06:00:00 0,4 -0,6 -3,8 6,7 9,0 4 2 7 4 S 1019,6 20 0 0,0
28.02.2020 05:00:00 0,3 -0,8 -3,9 6,8 9,0 3 2 9 5 SSW 1019,6 20 0 0,0
28.02.2020 04:00:00 0,4 -0,9 -4,2 6,8 9,1 6 3 9 5 SW 1019,7 20 0 0,0
28.02.2020 03:00:00 1,7 -0,4 -0,7 6,9 9,0 5 3 12 6 SW 1019,6 20 0 0,0
28.02.2020 02:00:00 2,4 -0,2 -0,3 7,0 9,0 6 4 17 9 WSW 1019,3 20 0 0,0
28.02.2020 01:00:00 3,0 0,2 0,6 7,0 9,1 9 5 15 8 WSW 1018,8 20 0 0,0
28.02.2020 00:00:00 2,9 0,5 0,2 7,1 9,1 9 5 16 8 WSW 1018,4 20 0 0,0
27.02.2020 23:00:00 3,5 0,4 0,6 7,1 9,1 8 4 18 10 WSW 1017,6 20 0 0,0
27.02.2020 22:00:00 3,9 0,2 1,4 7,2 9,1 9 5 17 9 WSW 1016,5 20 0 0,0
27.02.2020 21:00:00 4,1 0,1 2,2 7,2 9,1 9 5 20 11 W 1014,8 20 0 0,0
27.02.2020 20:00:00 4,9 -0,3 3,4 7,2 9,1 10 5 29 15 WNW 1013,6 20 0 0,0
27.02.2020 19:00:00 5,3 -0,3 4,1 7,3 9,1 13 7 53 28 NW 1011,8 20 0 0,0
27.02.2020 18:00:00 5,9 -0,6 5,2 7,3 9,1 23 13 48 26 NW 1009,1 20 0 0,0
27.02.2020 17:00:00 6,2 0,5 6,1 7,2 9,1 28 15 56 31 NW 1006,8 20 0 0,0
27.02.2020 16:00:00 6,6 1,1 6,5 7,2 9,1 33 18 69 38 NW 1003,8 20 0 0,0
27.02.2020 15:00:00 6,4 1,9 6,5 7,1 9,1 27 15 71 38 NW 1000,6 20 0 0,0
27.02.2020 14:00:00 6,9 3,1 6,9 7,0 9,1 30 16 82 44 NW 996,9 20 0 0,0
27.02.2020 13:00:00 10,6 6,7 9,9 7,0 9,1 36 20 73 39 W 991,7 20 0 0,0
27.02.2020 12:00:00 10,6 8,7 7,9 6,9 9,0 22 12 42 23 W 991,0 20 0 0,2
27.02.2020 11:00:00 7,6 7,2 5,7 6,9 9,1 19 10 47 26 SW 991,5 2,8 0 0,8
27.02.2020 10:00:00 5,8 5,4 4,3 6,9 9,1 22 12 62 33 SSW 993,0 4,7 0 1,0
27.02.2020 09:00:00 4,4 3,8 2,9 7,0 9,1 23 12 50 27 S 995,0 9 0 1,4
27.02.2020 08:00:00 3,2 2,5 2,4 7,1 9,1 23 12 44 24 S 996,8 10 0 4,3
27.02.2020 07:00:00 3,4 2,4 2,9 7,2 9,1 23 13 54 29 S 1000,8 9 0 2,4
27.02.2020 06:00:00 3,2 2,5 2,4 7,2 9,1 13 7 28 15 S 1003,6 12 0 0,8
27.02.2020 05:00:00 3,0 1,4 2,4 7,2 9,1 13 7 23 13 S 1005,6 17 0 0,0
27.02.2020 04:00:00 2,9 0,9 2,1 7,2 9,1 11 6 21 11 S 1007,6 20 0 0,0
27.02.2020 03:00:00 2,5 0,7 1,8 7,3 9,1 8 5 22 12 S 1009,5 20 0 0,0
27.02.2020 02:00:00 2,6 0,7 1,3 7,4 9,1 9 5 18 10 SSW 1010,9 20 0 0,0
27.02.2020 01:00:00 2,7 0,4 1,0 7,5 9,1 11 6 23 12 SW 1011,9 20 0 0,0
27.02.2020 00:00:00 2,5 0,1 0,7 7,5 9,1 9 5 19 11 SW 1012,5 20 0 0,0
26.02.2020 23:00:00 2,9 0,1 1,3 7,6 9,1 10 6 22 12 WSW 1012,9 20 0 0,0
26.02.2020 22:00:00 3,5 0,4 1,4 7,6 9,1 12 6 22 12 WSW 1012,9 20 0 0,0
26.02.2020 21:00:00 3,5 0,9 1,8 7,7 9,1 11 6 20 11 WSW 1012,8 20 0 0,0
26.02.2020 20:00:00 3,9 0,2 2,6 7,7 9,1 10 5 34 18 W 1012,9 20 0 0,0
26.02.2020 19:00:00 5,2 -0,4 3,4 7,7 9,1 11 6 32 17 WSW 1012,1 20 0 0,0
26.02.2020 18:00:00 6,3 -0,9 5,5 7,7 9,1 16 9 34 18 WNW 1011,4 20 0 0,0
26.02.2020 17:00:00 6,4 0,1 3,5 7,7 9,1 15 8 52 28 WNW 1010,9 19 0 0,0
26.02.2020 16:00:00 5,6 1,3 3,8 7,6 9,1 13 7 55 30 WNW 1010,5 20 0 0,2
26.02.2020 15:00:00 7,1 1,6 6,5 7,5 9,1 22 12 44 24 W 1009,9 20 0 0,0
26.02.2020 14:00:00 5,7 2,3 3,4 7,5 9,1 19 10 59 32 W 1009,6 20 0 0,4
26.02.2020 13:00:00 5,3 1,9 4,0 7,5 9,1 25 14 49 26 W 1009,1 20 0 0,2
26.02.2020 12:00:00 5,0 1,7 6,2 7,5 9,1 18 10 42 23 W 1009,1 20 0 0,0
26.02.2020 11:00:00 4,5 1,7 4,7 7,6 9,1 20 11 40 21 W 1008,3 20 0 0,0
26.02.2020 10:00:00 3,1 1,5 1,9 7,7 9,1 16 9 34 18 W 1007,6 20 0 0,0
26.02.2020 09:00:00 1,5 0,6 0,4 7,8 9,1 18 10 43 23 W 1006,6 20 0 0,2
26.02.2020 08:00:00 1,5 0,5 0,3 7,8 9,1 19 11 42 23 W 1005,2 19 0 0,6
26.02.2020 07:00:00 2,3 -0,1 1,5 7,9 9,1 16 9 39 21 W 1004,2 20 0 0,0
26.02.2020 06:00:00 2,2 -0,2 1,1 8,0 9,1 16 9 37 20 W 1003,6 20 0 0,0
26.02.2020 05:00:00 1,9 -0,2 0,5 8,1 9,0 16 9 39 21 W 1003,5 20 0 0,0
26.02.2020 04:00:00 2,0 0,2 1,2 8,2 9,0 20 11 49 26 W 1003,3 20 0 0,2
26.02.2020 03:00:00 3,3 0,5 2,6 8,4 9,0 24 13 53 29 WSW 1003,4 20 0 0,0
26.02.2020 02:00:00 3,4 0,3 2,1 8,5 9,0 20 11 44 24 WSW 1003,4 20 0 0,0
26.02.2020 01:00:00 3,6 -0,1 2,4 8,6 9,0 19 11 46 25 W 1003,5 20 0 0,0
26.02.2020 00:00:00 3,9 0,6 2,4 8,7 9,0 20 11 45 25 WSW 1003,4 20 0 0,0
25.02.2020 23:00:00 3,6 1,0 2,3 8,8 9,0 21 12 46 25 W 1003,4 20 0 0,0
25.02.2020 22:00:00 3,7 1,4 2,3 8,9 9,0 16 9 37 20 W 1003,1 20 0 0,0
25.02.2020 21:00:00 4,0 1,2 2,6 8,9 9,0 17 9 48 26 W 1003,2 20 0 0,2
25.02.2020 20:00:00 4,2 2,4 3,1 9,0 9,0 21 11 62 33 W 1004,0 20 0 1,4
25.02.2020 19:00:00 6,4 2,7 4,6 9,1 9,0 11 6 27 15 SW 1003,1 20 0 0,0
25.02.2020 18:00:00 6,8 2,7 5,6 9,1 9,0 19 10 34 18 WSW 1003,8 20 0 0,0
25.02.2020 17:00:00 6,5 3,3 4,9 9,0 9,0 17 9 50 27 WSW 1004,4 20 0 0,2
25.02.2020 16:00:00 6,5 4,0 5,8 9,0 9,0 24 13 56 30 W 1005,2 16 0 1,0
25.02.2020 15:00:00 9,9 3,8 7,0 9,0 9,0 19 10 52 28 WSW 1004,7 20 0 0,0
25.02.2020 14:00:00 8,9 3,7 7,7 9,0 9,0 22 12 44 24 WSW 1005,9 20 0 0,2
25.02.2020 13:00:00 9,2 4,0 8,8 9,0 9,0 16 8 39 21 WSW 1007,0 20 0 0,0
25.02.2020 12:00:00 8,9 3,7 9,7 9,0 9,0 20 11 39 21 WSW 1007,6 20 0 0,0
25.02.2020 11:00:00 8,5 3,7 9,7 9,1 9,0 17 9 35 19 W 1008,2 20 0 0,0
25.02.2020 10:00:00 7,9 4,5 7,1 9,1 9,0 13 7 33 18 W 1008,6 20 0 0,0
25.02.2020 09:00:00 7,2 4,2 5,9 9,1 8,9 13 7 36 19 W 1008,7 20 0 0,0
25.02.2020 08:00:00 7,3 5,9 6,5 9,1 8,9 13 7 24 13 W 1008,6 11 0 0,0
25.02.2020 07:00:00 7,0 5,9 6,3 9,2 8,9 9 5 26 14 W 1009,0 20 0 0,2
25.02.2020 06:00:00 7,6 5,9 6,7 9,2 8,9 10 5 41 22 W 1008,9 20 0 1,2
25.02.2020 05:00:00 9,0 8,5 8,5 9,2 8,9 14 8 32 17 WSW 1008,4 4,5 0 1,2
25.02.2020 04:00:00 9,0 8,2 8,4 9,2 8,9 17 9 32 17 SW 1008,6 14 0 0,8
25.02.2020 03:00:00 8,9 8,1 8,4 9,3 8,9 17 9 31 17 SW 1009,6 18 0 0,8
25.02.2020 02:00:00 8,9 8,0 8,4 9,3 8,9 16 9 36 19 SW 1010,4 13 0 0,6
25.02.2020 01:00:00 8,9 8,0 8,4 9,3 8,9 18 10 40 21 SW 1011,2 16 0 0,4
25.02.2020 00:00:00 9,2 8,0 8,5 9,3 8,9 20 11 40 22 WSW 1012,0 20 0 0,0
24.02.2020 23:00:00 9,2 8,1 8,6 9,3 8,9 17 9 39 21 SW 1012,3 15 0 0,2
24.02.2020 22:00:00 9,9 7,8 9,1 9,3 8,9 22 12 45 24 SW 1013,4 13 0 0,0
24.02.2020 21:00:00 10,5 7,4 9,8 9,3 8,9 20 11 45 24 WSW 1013,6 20 0 0,0
24.02.2020 20:00:00 11,0 6,9 10,1 9,3 8,9 26 14 49 27 WSW 1014,0 20 0 0,0
24.02.2020 19:00:00 11,2 6,5 10,1 9,3 8,9 22 12 51 28 SW 1014,0 20 0 0,0
24.02.2020 18:00:00 11,8 6,5 11,2 9,3 8,9 25 14 58 32 WSW 1014,4 20 0 0,0
24.02.2020 17:00:00 12,0 7,1 11,6 9,3 8,9 24 13 47 25 WSW 1014,9 20 0 0,0
24.02.2020 16:00:00 11,8 7,3 11,8 9,3 8,9 22 12 53 28 WSW 1015,3 20 0 0,0
24.02.2020 15:00:00 11,6 7,1 11,6 9,2 8,9 26 14 56 30 WSW 1016,5 20 0 0,0
24.02.2020 14:00:00 11,0 8,2 11,4 9,1 8,9 24 13 53 29 SW 1017,5 20 0 0,0
24.02.2020 13:00:00 10,9 8,5 11,6 9,1 8,9 29 16 55 30 SW 1018,3 20 0 0,0
24.02.2020 12:00:00 10,6 8,7 11,2 9,0 8,9 23 13 48 26 SW 1019,4 20 0 0,0
24.02.2020 11:00:00 10,6 8,7 10,5 9,0 8,9 23 12 45 24 SW 1020,1 20 0 0,0
24.02.2020 10:00:00 10,3 8,7 9,9 9,0 8,9 16 9 37 20 SW 1021,2 20 0 0,0
24.02.2020 09:00:00 10,0 8,8 9,7 9,0 8,9 21 11 41 22 SW 1021,9 17 0 0,0
24.02.2020 08:00:00 10,1 9,0 9,8 9,0 8,9 15 8 37 20 SW 1022,2 20 0 0,0
24.02.2020 07:00:00 10,3 9,4 9,9 8,9 8,8 17 9 31 17 SW 1022,8 20 0 0,0
24.02.2020 06:00:00 10,5 9,9 10,1 9,0 8,9 13 7 27 15 SW 1023,5 19 0 0,0
24.02.2020 05:00:00 10,6 10,0 10,3 9,0 8,9 8 5 20 11 WSW 1024,2 20 0 0,0
24.02.2020 04:00:00 10,7 9,9 10,3 8,9 8,9 12 6 27 14 SW 1024,5 20 0 0,0
24.02.2020 03:00:00 10,7 10,1 10,4 9,0 8,9 16 9 29 16 WSW 1025,4 20 0 0,0
24.02.2020 02:00:00 10,8 10,2 10,5 8,9 8,8 14 8 26 14 WSW 1026,2 20 0 0,0
24.02.2020 01:00:00 10,9 10,4 10,6 8,9 8,8 12 6 23 13 SW 1026,4 3,9 0 0,2
24.02.2020 00:00:00 11,1 10,6 10,7 8,9 8,8 13 7 24 13 WSW 1026,7 3,2 0 0,6
23.02.2020 23:00:00 11,2 10,7 10,8 8,8 8,9 16 9 29 16 WSW 1026,6 4,5 0 0,4
23.02.2020 22:00:00 11,2 10,6 10,8 8,8 8,9 14 8 31 17 WSW 1026,4 3,5 0 0,0
23.02.2020 21:00:00 11,4 10,8 10,9 8,7 8,8 16 9 31 17 WSW 1026,2 5 0 0,2
23.02.2020 20:00:00 11,5 10,7 11,0 8,7 8,8 19 11 39 21 WSW 1025,9 4,3 0 0,0
23.02.2020 19:00:00 11,8 10,4 11,2 8,6 8,9 24 13 43 23 WSW 1025,3 11 0 0,0
23.02.2020 18:00:00 12,2 10,1 11,9 8,6 8,9 18 10 45 24 WSW 1024,6 20 0 0,0
23.02.2020 17:00:00 12,4 9,9 12,1 8,5 8,8 25 14 52 28 WSW 1023,9 20 0 0,0
23.02.2020 16:00:00 12,0 9,9 11,9 8,5 8,8 26 14 53 28 WSW 1024,2 19 0 0,0
23.02.2020 15:00:00 12,0 9,6 11,6 8,4 8,8 22 12 45 25 WSW 1024,1 20 0 0,0
23.02.2020 14:00:00 11,5 9,1 11,4 8,3 8,9 23 12 46 25 WSW 1024,2 20 0 0,0
23.02.2020 13:00:00 11,6 9,0 11,7 8,3 8,9 27 15 54 29 WSW 1024,2 20 0 0,0
23.02.2020 12:00:00 11,2 8,8 11,1 8,2 8,9 26 14 55 30 SW 1024,0 20 0 0,0
23.02.2020 11:00:00 11,1 8,5 11,1 8,2 8,9 28 15 59 32 WSW 1024,2 20 0 0,0
23.02.2020 10:00:00 10,5 8,3 10,1 8,2 8,9 27 15 48 26 SW 1024,0 20 0 0,0
23.02.2020 09:00:00 9,8 8,1 9,3 8,1 8,9 20 11 43 23 SW 1025,0 20 0 0,0
23.02.2020 08:00:00 9,5 8,1 9,2 8,1 8,9 23 12 43 23 SW 1025,1 20 0 0,0
23.02.2020 07:00:00 9,5 8,1 9,1 8,1 8,9 19 10 42 23 SW 1025,0 20 0 0,0
23.02.2020 06:00:00 9,2 8,3 9,0 8,1 8,9 18 10 40 22 WSW 1025,6 20 0 0,0
23.02.2020 05:00:00 9,3 8,2 9,1 8,1 8,9 19 10 37 20 SW 1025,8 20 0 0,0
23.02.2020 04:00:00 9,4 8,3 9,2 8,0 8,9 20 11 42 23 SW 1026,0 20 0 0,0
23.02.2020 03:00:00 9,6 8,2 9,4 8,0 8,9 15 8 35 19 SW 1027,3 20 0 0,0
23.02.2020 02:00:00 9,9 8,0 9,5 8,0 8,9 16 8 29 16 SW 1028,1 20 0 0,0
23.02.2020 01:00:00 10,0 7,9 9,6 8,0 8,9 16 9 34 18 WSW 1028,7 20 0 0,0
23.02.2020 00:00:00 10,1 7,9 9,8 7,9 8,9 19 10 37 20 SW 1028,7 20 0 0,0
22.02.2020 23:00:00 10,5 7,9 10,0 7,9 8,9 17 9 34 18 WSW 1029,1 20 0 0,0
22.02.2020 22:00:00 10,7 7,9 10,0 7,8 8,9 17 9 32 17 SW 1028,9 20 0 0,0
22.02.2020 21:00:00 11,0 8,0 10,5 7,8 8,9 17 9 39 21 WSW 1029,3 20 0 0,0
22.02.2020 20:00:00 11,7 7,8 11,1 7,7 8,9 18 10 32 18 WSW 1029,1 20 0 0,0

tt = Température de l'air
td = dewpoint
tt 5cm = Température de l'air 5cm
tt -20cm = Température de l'air -20cm
tt -100cm = Température de l'air -100cm
ff = Vitesse du vent
fx = gusts
dd = Direction du vent
ppp = reduced air pressure
vv = visibility
sd = Ensoleillement
rr = Quantités de précipitations

stations d'obs. à proximité